Christchurch, New Zealand

6:26 AM NZST on April 29, 2017 (GMT +1200)
Christchurch

Weather History for 93780 - January, 2014

Change the Weather History Date:

Friday, January 3, 2014

  Actual Average Record
Temperature  
Mean Temperature 70 °F -  
Max Temperature 78 °F 68 °F - ()
Min Temperature 62 °F 50 °F - ()
Cooling Degree Days 5    
Growing Degree Days 20 (Base 50)    
Moisture  
Dew Point 45 °F    
Average Humidity 43    
Maximum Humidity 72    
Minimum Humidity 31    
Precipitation  
Precipitation 0.00 in - - ()
Sea Level Pressure  
Sea Level Pressure 29.20 in    
Wind  
Wind Speed 15 mph ()    
Max Wind Speed 29 mph    
Max Gust Speed 40 mph    
Visibility 6.2 miles    
Events Rain    
T = Trace of Precipitation, MM = Missing Value Source: Averaged Metar Reports

Daily Weather History Graph

Daily Weather History Graph

Search for Another Location

Airport or City:

Trip Planner

Search our weather history database for the weather conditions in past years. The results will help you decide how hot, cold, wet, or windy it might be!

Date:

Astronomy

Jan. 03, 2014 Rise Set
Actual Time 5:54 AM NZDT 9:13 PM NZDT
Civil Twilight 5:18 AM NZDT 9:49 PM NZDT
Nautical Twilight 4:32 AM NZDT 10:35 PM NZDT
Astronomical Twilight 3:35 AM NZDT 11:31 PM NZDT
Moon 7:51 AM NZDT (1/3) 10:12 PM NZDT (1/3)
Length of Visible Light 16h 30m
Length of Day
15h 19m
Waxing Crescent, 3% of the Moon is Illuminated
Jan 3
Waxing Crescent
Jan 8
First Quarter
Jan 16
Full
Jan 24
Last Quarter
Jan 31
New

Hourly Weather History & Observations

Time (NZDT) Temp. Dew Point Humidity Pressure Visibility Wind Dir Wind Speed Gust Speed Precip Events Conditions
12:00 AM 62.6 °F 44.6 °F 52% 29.39 in 6.2 mi NE 9.2 mph - N/A   Partly Cloudy
12:30 AM 66.2 °F 42.8 °F 43% 29.39 in 6.2 mi North 15.0 mph 26.5 mph N/A   Unknown
1:00 AM 64.4 °F 42.8 °F 45% 29.36 in 6.2 mi NE 11.5 mph - N/A   Mostly Cloudy
1:30 AM 64.4 °F 42.8 °F 45% 29.33 in 6.2 mi NNE 17.3 mph - N/A   Partly Cloudy
2:00 AM 64.4 °F 42.8 °F 45% 29.33 in 6.2 mi NE 17.3 mph - N/A   Scattered Clouds
2:30 AM 66.2 °F 42.8 °F 43% 29.33 in 6.2 mi NNE 18.4 mph - N/A   Scattered Clouds
3:00 AM 64.4 °F 42.8 °F 45% 29.30 in 6.2 mi NE 16.1 mph - N/A   Partly Cloudy
3:30 AM 68.0 °F 41.0 °F 37% 29.30 in 6.2 mi NNW 15.0 mph 28.8 mph N/A   Scattered Clouds
4:00 AM 66.2 °F 42.8 °F 43% 29.27 in 6.2 mi NNE 12.7 mph 25.3 mph N/A   Mostly Cloudy
4:30 AM 66.2 °F 41.0 °F 40% 29.27 in 6.2 mi East 11.5 mph - N/A   Mostly Cloudy
5:00 AM 66.2 °F 42.8 °F 43% 29.24 in 6.2 mi ENE 10.4 mph - N/A   Mostly Cloudy
5:30 AM 66.2 °F 44.6 °F 46% 29.24 in 6.2 mi NNE 18.4 mph - N/A   Partly Cloudy
6:00 AM 66.2 °F 44.6 °F 46% 29.24 in 6.2 mi North 13.8 mph - N/A   Unknown
6:30 AM 68.0 °F 46.4 °F 46% 29.27 in 6.2 mi North 15.0 mph - N/A   Unknown
7:00 AM 68.0 °F 46.4 °F 46% 29.24 in 6.2 mi NNE 16.1 mph 29.9 mph N/A   Mostly Cloudy
7:30 AM 66.2 °F 48.2 °F 52% 29.21 in 6.2 mi NNE 23.0 mph - N/A Rain Light Rain
8:00 AM 62.6 °F 53.6 °F 72% 29.21 in 6.2 mi North 11.5 mph 24.2 mph N/A Rain Light Rain Showers
8:30 AM 62.6 °F 53.6 °F 72% 29.15 in 6.2 mi North 21.9 mph - N/A   Partly Cloudy
9:00 AM 66.2 °F 53.6 °F 64% 29.15 in 6.2 mi North 19.6 mph - N/A   Unknown
9:30 AM 66.2 °F 53.6 °F 64% 29.15 in 6.2 mi North 15.0 mph 28.8 mph N/A   Unknown
10:00 AM 69.8 °F 55.4 °F 60% 29.18 in 6.2 mi NNW 16.1 mph - N/A   Unknown
10:30 AM 73.4 °F 48.2 °F 41% 29.15 in 6.2 mi NNW 28.8 mph - N/A   Unknown
11:00 AM 75.2 °F 42.8 °F 31% 29.12 in 6.2 mi NNW 27.6 mph 40.3 mph N/A   Unknown
11:30 AM 75.2 °F 44.6 °F 34% 29.12 in 6.2 mi NW 21.9 mph 35.7 mph N/A   Unknown
12:00 PM 77.0 °F 46.4 °F 34% 29.12 in 6.2 mi NNW 16.1 mph - N/A   Unknown
12:30 PM 77.0 °F 46.4 °F 34% 29.09 in 6.2 mi West 16.1 mph - N/A   Unknown
1:00 PM 78.8 °F 46.4 °F 32% 29.09 in 6.2 mi NNW 17.3 mph - N/A   Unknown
1:30 PM 78.8 °F 48.2 °F 34% 29.09 in 6.2 mi NNW 15.0 mph - N/A   Unknown
2:00 PM 78.8 °F 46.4 °F 32% 29.09 in 6.2 mi NW 18.4 mph - N/A   Partly Cloudy
2:30 PM 75.2 °F 46.4 °F 36% 29.09 in 6.2 mi West 21.9 mph - N/A   Unknown
3:00 PM 77.0 °F 46.4 °F 34% 29.09 in 6.2 mi West 20.7 mph 32.2 mph N/A   Unknown
3:30 PM 75.2 °F 46.4 °F 36% 29.09 in 6.2 mi West 27.6 mph - N/A   Unknown
4:00 PM 73.4 °F 42.8 °F 33% 29.09 in 6.2 mi WNW 26.5 mph 39.1 mph N/A   Unknown
4:30 PM 71.6 °F 42.8 °F 35% 29.09 in 6.2 mi NW 21.9 mph 33.4 mph N/A   Unknown
5:00 PM 75.2 °F 44.6 °F 34% 29.12 in 6.2 mi NW 25.3 mph - N/A   Unknown
5:30 PM 75.2 °F 44.6 °F 34% 29.12 in 6.2 mi NW 25.3 mph - N/A   Unknown
6:00 PM 75.2 °F 44.6 °F 34% 29.15 in 6.2 mi NW 20.7 mph - N/A   Unknown
6:30 PM 75.2 °F 44.6 °F 34% 29.15 in 6.2 mi WNW 18.4 mph 31.1 mph N/A   Unknown
7:00 PM 73.4 °F 44.6 °F 36% 29.18 in 6.2 mi WNW 19.6 mph - N/A   Unknown
7:30 PM 73.4 °F 44.6 °F 36% 29.18 in 6.2 mi WNW 18.4 mph - N/A   Unknown
8:00 PM 69.8 °F 44.6 °F 40% 29.18 in 6.2 mi NW 17.3 mph 28.8 mph N/A   Unknown
8:30 PM 69.8 °F 44.6 °F 40% 29.21 in 6.2 mi NW 17.3 mph - N/A   Unknown
9:00 PM 68.0 °F 44.6 °F 43% 29.24 in 6.2 mi NW 12.7 mph - N/A   Unknown
9:30 PM 66.2 °F 44.6 °F 46% 29.24 in 6.2 mi NW 15.0 mph - N/A   Unknown
10:00 PM 66.2 °F 42.8 °F 43% 29.27 in 6.2 mi NW 15.0 mph - N/A   Unknown
10:30 PM 66.2 °F 42.8 °F 43% 29.27 in 6.2 mi NW 16.1 mph - N/A   Unknown
11:00 PM 66.2 °F 42.8 °F 43% 29.30 in 6.2 mi NW 16.1 mph 27.6 mph N/A   Unknown
11:30 PM 66.2 °F 42.8 °F 43% 29.30 in 6.2 mi WNW 19.6 mph - N/A   Unknown